Location: Helsinki
(60.1699°N, 24.9384°E)
Time: 20:54:49
(UTC+02:00)

Transit 4A - Pass Details

Date: 31 October 2020
Orbit: 862 x 982 km, 66.8° (Epoch: 30 November)

Event Time Altitude Azimuth Distance (km) Brightness Sun altitude
Rises 14:17:18 0° 179° (S) 3,615 12.0 10.8°
Reaches altitude 10° 14:20:11 10° 168° (SSE) 2,690 11.1 10.6°
Maximum altitude 14:25:19 27° 113° (ESE) 1,775 9.4 10.2°
Drops below altitude 10° 14:30:32 10° 58° (ENE) 2,743 9.8 9.9°
Sets 14:33:29 0° 47° (NE) 3,699 10.4 9.7°
